Wind_Speed
3 1 2 1 2 1 3 3 2 3 4 6 7 10 13 15 17 18 18 18 20 21 23 25 27 29 31 33 35 37 38 39 40 39 39 38 38 37 36 36 35 35 34 33 33 32 32 32 31
5 3 2 2 2 4 4 3 2 2 3 4 6 8 10 12 13 15 15 16 17 18 19 20 22 24 26 28 30 32 34 36 37 39 40 40 40 40 40 40 39 39 38 37 36 36 35 35 35
7 7 5 7 8 7 7 5 4 3 3 3 5 6 8 9 11 13 14 16 17 18 20 21 22 23 25 27 28 30 31 32 34 35 37 39 40 40 41 41 42 42 41 40 40 39 38 38 38
9 8 9 10 9 8 7 7 6 6 5 6 7 7 9 10 12 14 15 17 18 20 21 23 24 26 27 29 31 32 34 35 36 37 38 39 40 41 41 42 42 43 43 43 43 42 41 41 41
9 10 10 9 8 8 8 8 8 8 8 8 9 9 11 12 13 14 16 17 18 20 22 23 25 27 29 30 32 34 35 37 38 40 41 42 43 44 44 44 44 44 45 45 45 45 44 43 43
9 11 10 10 10 10 10 10 10 9 9 9 10 11 12 13 14 16 17 19 21 23 25 27 28 30 32 34 35 37 38 40 41 42 43 44 45 46 47 48 48 48 48 47 47 47 46 46 45
12 12 11 12 11 11 11 11 11 10 10 11 11 12 12 14 16 18 20 23 25 28 30 33 35 37 39 41 42 43 44 45 46 47 47 48 48 49 49 49 50 51 51 52 51 50 49 49 48
13 13 13 13 13 13 12 12 12 11 11 12 12 13 15 18 20 23 25 28 31 34 37 40 43 45 47 49 51 52 53 54 54 54 54 54 54 53 53 53 53 53 53 53 54 54 54 52 52
14 15 14 14 14 13 13 12 12 12 12 14 15 17 19 22 25 28 30 34 37 40 44 47 50 52 55 57 58 60 61 62 62 62 62 61 61 60 59 58 57 56 56 56 55 55 56 57 56
14 14 14 14 13 13 13 13 13 13 14 17 19 21 24 27 29 33 36 39 42 46 50 53 56 59 61 63 65 67 68 69 69 70 69 68 67 67 66 64 63 61 60 59 58 58 57 58 59
13 13 13 12 12 12 12 13 14 15 17 20 23 25 28 31 34 37 41 44 48 51 55 58 61 64 67 69 71 73 74 75 75 76 76 75 74 72 71 70 69 68 66 64 63 61 61 60 60
11 11 11 10 10 11 12 13 15 18 20 24 26 29 32 36 39 42 46 49 52 56 60 63 66 69 72 74 76 77 78 79 80 80 81 80 79 77 75 74 73 72 72 70 67 66 65 63 63
9 8 8 7 8 10 12 14 17 20 24 27 30 33 36 40 43 46 50 54 57 61 65 69 72 74 76 78 79 80 81 81 82 82 83 83 82 81 80 78 77 76 75 74 73 71 69 68 66
6 5 6 7 8 10 13 17 20 24 28 31 34 37 40 43 46 50 54 58 63 67 70 73 76 78 80 81 82 82 83 83 84 84 85 85 85 85 83 81 79 78 77 77 77 76 74 72 71
5 6 7 9 11 13 15 18 24 27 31 34 36 39 42 46 49 54 59 63 67 71 75 77 79 81 83 84 85 86 87 88 87 86 83 81 79 79 78 76 76 75 75 76 78 79 79 77 75
9 10 12 14 15 18 20 20 25 29 33 36 39 43 46 50 54 59 64 68 72 75 78 80 82 83 84 85 86 87 86 83 79 74 70 66 64 64 64 64 65 66 67 70 73 77 80 80 79
13 14 15 17 20 21 24 26 28 32 36 39 42 46 50 55 59 63 68 72 75 78 81 83 84 84 85 85 83 80 75 70 65 61 58 56 54 53 53 53 54 56 58 62 66 71 76 80 82
17 19 20 20 23 25 27 29 31 34 38 42 46 50 54 59 64 68 72 75 78 81 82 84 85 85 84 80 75 70 65 62 58 56 55 53 52 51 50 49 49 49 50 53 59 65 71 78 82
19 21 22 23 26 27 29 31 31 36 40 44 49 53 58 63 67 71 75 78 80 82 83 84 84 83 80 75 71 67 63 60 58 57 56 55 54 53 53 51 50 49 48 48 50 55 64 73 80
20 22 23 22 24 28 29 31 32 37 42 47 52 57 61 66 71 75 78 80 82 83 83 83 82 80 77 73 70 68 65 62 60 59 58 57 57 56 56 54 53 52 50 49 49 50 53 61 73
21 22 24 26 25 26 31 32 34 40 45 50 55 60 65 70 75 78 80 81 82 83 83 82 80 77 74 71 68 64 61 59 56 54 53 53 54 55 56 56 56 55 53 52 51 50 50 52 58
21 22 23 25 28 30 32 37 37 44 50 55 59 64 69 74 78 80 81 81 82 82 82 80 77 74 71 67 64 60 57 55 53 51 49 48 48 48 50 53 55 56 56 55 53 52 51 50 51
22 23 24 26 29 31 33 39 43 49 54 58 63 68 73 77 79 79 81 82 82 81 80 77 74 70 66 63 61 59 57 55 53 51 50 48 46 46 46 47 49 52 55 57 57 55 53 51 50
23 24 25 27 32 37 41 45 47 51 56 62 67 71 75 77 78 79 81 82 81 80 78 74 70 66 63 62 61 59 58 57 54 52 50 47 45 44 44 44 45 46 50 53 56 56 55 53 51
24 26 30 35 37 40 42 44 48 54 60 65 69 72 74 77 79 80 81 81 80 78 75 71 66 64 63 62 61 60 59 57 54 51 48 46 45 43 43 43 43 43 45 48 51 54 55 54 52
25 27 31 34 37 38 41 46 52 56 61 65 69 73 76 78 79 80 80 80 78 76 72 67 65 64 63 62 62 60 58 56 52 49 47 46 45 44 43 41 41 41 41 43 46 49 52 53 52
26 28 31 34 37 41 45 48 53 57 61 66 71 74 77 78 78 79 79 78 76 73 69 66 65 64 63 63 62 59 56 54 50 48 47 46 45 44 43 41 39 38 39 40 42 45 48 50 51
27 30 33 36 40 44 46 51 55 58 63 68 72 74 76 77 78 78 78 77 74 70 67 66 65 64 64 63 61 58 55 52 49 48 47 46 46 45 43 41 39 37 36 37 38 41 44 47 49
28 31 33 35 39 44 50 53 55 60 65 70 72 74 76 77 77 77 77 75 71 67 66 65 65 64 64 62 59 56 54 51 50 49 49 48 47 46 44 42 39 35 34 34 35 37 40 44 46
29 32 35 37 40 43 48 54 56 61 67 71 73 74 75 76 76 76 75 72 68 65 64 64 65 64 63 61 58 55 53 52 51 50 50 50 49 47 46 43 39 35 32 31 32 34 36 40 43
Wind_Direction
85 112 156 153 264 312 7 6 323 283 289 292 290 292 297 300 302 300 299 298 294 291 289 286 282 279 277 274 272 271 270 269 268 266 265 264 263 261 260 260 260 259 258 257 255 253 250 247 245
89 86 90 89 60 57 41 35 6 340 323 307 302 299 302 307 314 315 316 317 314 311 307 303 299 294 290 287 285 282 279 276 274 271 269 267 266 265 264 262 261 259 258 258 256 255 253 249 246
88 80 60 62 59 56 57 55 47 37 11 339 331 327 327 328 329 326 326 324 322 319 315 311 308 304 300 297 293 290 287 283 280 277 274 272 269 267 266 265 263 261 258 257 256 255 254 251 248
81 78 62 62 62 62 60 56 49 38 25 11 4 355 348 341 336 333 331 328 325 321 317 313 309 304 300 297 293 291 288 286 283 281 278 276 273 271 268 265 264 262 261 258 256 254 253 251 249
77 73 64 58 58 55 52 48 42 36 29 21 13 3 355 349 344 340 336 331 326 322 317 312 308 304 301 297 294 291 288 286 283 281 279 277 275 272 270 268 265 263 261 260 257 255 252 251 249
66 62 59 57 56 55 54 51 46 40 32 26 18 7 359 352 346 342 337 332 327 322 318 313 309 306 302 299 296 293 290 287 285 282 280 277 275 273 271 269 267 264 262 260 258 256 254 251 249
56 57 55 55 55 54 52 49 45 39 32 27 19 9 1 353 346 340 335 331 326 322 318 315 312 308 305 302 300 297 294 291 289 286 283 280 277 275 272 269 267 265 262 260 258 256 255 253 251
58 58 56 56 54 52 51 49 47 42 33 23 13 4 355 348 341 336 332 328 324 321 319 316 313 310 307 305 302 299 296 293 291 288 286 283 281 278 275 272 269 266 263 261 258 255 254 253 251
58 58 58 57 55 54 51 46 39 31 20 10 1 353 345 339 334 330 326 324 321 319 317 314 312 310 307 305 302 300 297 294 292 289 286 284 281 279 277 274 272 268 265 262 259 256 253 251 250
62 61 60 58 55 49 42 35 25 14 4 355 347 341 335 331 328 325 322 320 318 316 315 313 311 308 306 303 301 299 297 294 292 289 287 284 281 279 276 274 272 269 267 264 260 257 254 251 249
66 64 60 55 47 38 28 18 6 356 348 341 336 331 328 325 323 321 320 317 315 313 312 310 308 306 304 302 300 297 295 293 291 288 286 284 281 278 275 272 270 268 266 264 261 258 255 252 249
67 62 54 46 34 21 9 359 349 342 335 331 326 324 323 322 320 319 316 314 313 311 310 308 306 304 303 301 299 297 295 293 290 288 286 284 281 279 275 271 268 266 264 262 260 258 255 252 249
59 52 41 27 12 0 350 341 335 330 327 323 322 320 320 319 318 316 314 313 312 311 309 308 306 305 303 302 299 297 295 292 290 287 285 282 280 278 274 271 267 264 262 259 257 256 254 252 249
32 16 2 349 341 337 331 326 324 323 321 319 319 318 318 318 317 315 314 313 312 311 310 309 308 307 305 303 301 299 296 293 290 287 284 282 279 277 274 272 268 264 260 257 254 252 251 250 248
342 327 322 320 319 319 320 319 318 319 318 317 316 317 317 316 316 316 315 314 313 312 311 311 309 308 307 305 303 301 298 295 293 291 288 286 282 280 277 274 271 267 262 257 253 249 247 246 246
315 314 310 312 313 313 314 316 315 316 316 317 318 318 318 318 318 317 316 316 315 315 314 313 311 310 309 307 305 302 301 300 298 294 291 287 284 281 277 274 272 268 264 259 254 249 246 243 242
308 307 308 310 311 312 313 316 318 318 318 319 320 320 319 319 319 319 319 318 318 317 316 315 314 312 310 308 307 306 305 303 299 294 290 287 284 280 277 274 271 269 265 260 254 249 245 242 240
312 312 312 313 311 314 316 319 322 321 321 321 321 321 321 322 322 321 321 321 320 319 319 317 316 314 312 311 311 309 307 303 299 294 290 287 284 281 278 275 272 270 266 262 255 249 244 240 238
313 311 312 316 316 318 320 323 326 322 322 322 323 324 325 325 325 324 324 324 323 322 320 319 317 315 314 313 312 310 306 303 298 294 290 287 284 280 277 274 272 269 267 264 259 253 246 241 237
314 314 315 317 317 321 323 326 327 323 324 325 327 328 328 327 327 326 326 325 324 323 321 320 318 317 317 316 314 311 308 305 301 297 292 288 284 280 276 273 270 267 265 264 262 258 252 246 240
321 320 321 323 325 327 325 323 327 326 328 329 330 330 329 329 329 328 328 326 325 324 323 322 321 321 320 318 316 314 312 310 306 302 298 293 288 282 277 273 269 266 264 262 260 259 256 252 246
324 324 325 326 328 329 327 324 332 331 331 332 332 331 331 331 330 330 329 327 326 326 325 324 324 324 323 322 321 320 318 315 312 309 305 300 295 289 282 275 270 266 263 260 258 257 256 253 250
327 329 330 328 326 326 328 332 337 335 332 332 333 334 334 333 331 330 329 329 328 327 327 327 327 327 326 325 325 323 321 319 317 314 310 307 302 296 290 282 275 268 264 260 257 256 255 253 252
330 330 328 327 330 335 338 337 336 334 333 336 336 336 335 332 332 331 331 330 330 329 329 330 330 330 329 328 327 325 324 322 319 317 314 311 306 301 295 288 281 274 267 261 257 254 253 252 251
331 332 334 335 336 336 332 331 335 337 338 338 337 336 334 333 334 333 332 331 331 331 332 333 333 332 331 330 329 327 325 324 322 320 318 315 311 306 300 293 286 278 271 263 257 253 250 250 250
333 334 334 333 331 329 330 335 339 338 338 337 336 335 335 335 335 334 333 333 333 333 335 335 334 333 333 332 330 329 327 326 325 323 322 320 318 314 308 300 291 282 274 266 258 252 248 247 247
332 332 332 330 328 332 335 335 337 338 337 336 336 337 336 336 335 335 335 334 335 336 337 337 336 335 335 334 332 331 330 329 327 325 324 322 321 318 315 308 299 288 277 268 259 252 247 244 243
330 330 331 332 333 333 333 335 339 337 336 337 338 338 337 337 336 336 336 336 337 338 338 338 337 337 337 336 335 333 332 331 329 327 325 324 322 320 318 314 305 294 282 270 261 252 246 242 240
328 329 331 333 334 334 333 335 337 337 338 339 339 339 338 338 337 337 337 338 339 339 340 339 339 339 338 338 337 336 335 333 331 329 327 325 323 321 319 316 310 300 287 274 262 253 245 240 237
330 330 332 334 334 332 330 333 337 338 339 340 340 340 339 339 339 339 339 340 340 341 341 341 341 341 341 340 339 339 337 336 333 331 328 326 323 321 318 316 311 304 291 277 264 253 244 238 234
Height
5857 5857 5858 5859 5860 5860 5859 5860 5862 5863 5864 5865 5865 5865 5865 5864 5865 5867 5864 5862 5861 5860 5859 5858 5857 5856 5855 5854 5853 5852 5851 5851 5850 5850 5849 5849 5848 5848 5848 5848 5848 5849 5849 5850 5851 5851 5852 5852 5853
5857 5858 5859 5859 5858 5859 5860 5860 5861 5863 5864 5864 5864 5865 5865 5864 5863 5862 5861 5860 5859 5858 5856 5855 5854 5852 5851 5849 5848 5847 5845 5844 5843 5842 5842 5842 5841 5841 5841 5841 5841 5841 5842 5843 5844 5844 5845 5846 5847
5858 5859 5861 5859 5858 5860 5861 5861 5862 5863 5864 5864 5864 5864 5864 5863 5862 5861 5859 5858 5857 5855 5854 5852 5851 5849 5847 5845 5843 5841 5839 5838 5836 5835 5834 5833 5833 5833 5833 5833 5833 5833 5834 5834 5835 5836 5838 5839 5840
5860 5861 5862 5860 5860 5861 5862 5862 5863 5864 5864 5864 5864 5864 5862 5861 5860 5859 5858 5856 5854 5853 5851 5849 5847 5845 5843 5840 5838 5835 5833 5831 5829 5827 5826 5825 5824 5823 5823 5824 5824 5824 5825 5825 5826 5827 5829 5830 5832
5862 5863 5862 5861 5862 5863 5863 5864 5864 5865 5864 5864 5864 5862 5861 5860 5858 5857 5855 5854 5852 5850 5848 5846 5843 5840 5838 5835 5832 5829 5826 5824 5821 5819 5817 5816 5815 5814 5814 5814 5814 5814 5815 5816 5816 5817 5819 5820 5822
5864 5864 5864 5864 5864 5865 5864 5865 5865 5864 5864 5863 5863 5861 5859 5858 5857 5855 5854 5852 5850 5847 5845 5843 5840 5837 5833 5830 5827 5823 5820 5817 5814 5811 5809 5807 5805 5804 5803 5803 5803 5803 5804 5805 5806 5807 5809 5810 5812
5865 5865 5865 5865 5866 5866 5866 5865 5865 5864 5864 5863 5862 5861 5859 5858 5856 5854 5852 5850 5847 5845 5842 5839 5835 5832 5828 5824 5820 5817 5813 5809 5806 5803 5800 5797 5795 5793 5792 5791 5791 5791 5792 5793 5794 5796 5798 5800 5802
5867 5868 5867 5867 5867 5867 5867 5866 5866 5865 5864 5863 5862 5860 5858 5857 5854 5852 5849 5846 5843 5839 5836 5832 5828 5824 5820 5815 5811 5807 5803 5799 5796 5793 5790 5787 5785 5782 5781 5780 5779 5778 5778 5779 5781 5784 5785 5788 5790
5870 5870 5868 5869 5869 5869 5868 5867 5866 5865 5864 5862 5860 5858 5856 5854 5851 5848 5845 5841 5837 5833 5828 5824 5819 5814 5809 5804 5799 5794 5789 5785 5781 5778 5775 5773 5771 5769 5768 5766 5765 5765 5765 5766 5767 5769 5771 5774 5777
5872 5871 5870 5870 5870 5869 5868 5868 5866 5864 5863 5861 5859 5856 5853 5850 5847 5843 5839 5835 5830 5825 5820 5814 5808 5803 5797 5791 5785 5780 5774 5769 5765 5761 5758 5755 5753 5752 5751 5750 5749 5750 5750 5751 5752 5754 5756 5759 5762
5873 5872 5872 5871 5870 5870 5868 5867 5866 5864 5861 5859 5856 5853 5850 5846 5842 5838 5833 5828 5823 5817 5811 5804 5798 5791 5784 5777 5770 5764 5758 5752 5746 5741 5738 5735 5733 5732 5731 5730 5730 5731 5732 5735 5737 5738 5740 5743 5747
5874 5873 5873 5872 5871 5870 5868 5866 5864 5862 5860 5856 5853 5849 5846 5841 5837 5832 5827 5821 5815 5808 5801 5793 5785 5777 5769 5761 5753 5746 5738 5732 5725 5720 5715 5712 5710 5708 5708 5707 5708 5709 5712 5715 5718 5720 5723 5727 5730
5875 5874 5874 5872 5871 5869 5867 5865 5863 5860 5857 5853 5849 5845 5841 5836 5831 5825 5819 5812 5805 5797 5788 5779 5770 5761 5752 5743 5734 5725 5717 5710 5703 5696 5691 5687 5684 5683 5682 5682 5683 5685 5688 5693 5696 5699 5704 5708 5712
5876 5875 5874 5872 5871 5869 5867 5864 5861 5858 5854 5850 5845 5841 5836 5831 5825 5818 5810 5802 5793 5784 5775 5764 5754 5743 5733 5722 5712 5703 5694 5685 5677 5671 5665 5661 5658 5655 5654 5654 5655 5658 5662 5667 5671 5675 5681 5687 5693
5875 5875 5873 5871 5869 5867 5866 5863 5858 5854 5850 5846 5841 5837 5831 5825 5818 5810 5801 5792 5781 5771 5759 5748 5736 5724 5712 5701 5689 5677 5667 5658 5650 5643 5637 5633 5630 5628 5627 5626 5627 5630 5634 5639 5644 5650 5657 5664 5671
5875 5874 5872 5870 5867 5864 5864 5861 5856 5851 5846 5841 5836 5830 5823 5816 5809 5800 5789 5779 5767 5755 5743 5730 5717 5705 5692 5679 5666 5654 5642 5632 5624 5618 5612 5608 5605 5603 5603 5602 5602 5604 5607 5611 5617 5623 5631 5639 5647
5874 5872 5870 5867 5864 5862 5859 5857 5852 5846 5841 5836 5829 5823 5815 5807 5798 5788 5777 5765 5753 5739 5726 5712 5698 5685 5671 5658 5644 5632 5621 5612 5604 5598 5593 5589 5586 5584 5582 5581 5581 5581 5583 5585 5590 5596 5604 5613 5621
5871 5868 5866 5865 5861 5858 5855 5852 5848 5841 5835 5829 5823 5815 5807 5797 5787 5776 5764 5751 5737 5723 5708 5693 5679 5664 5650 5637 5626 5615 5605 5596 5588 5582 5576 5572 5569 5567 5565 5564 5563 5563 5563 5564 5566 5571 5578 5586 5594
5868 5866 5863 5861 5857 5854 5850 5847 5843 5836 5830 5823 5815 5806 5797 5786 5774 5762 5750 5736 5722 5707 5692 5676 5661 5646 5632 5620 5610 5600 5590 5582 5574 5567 5560 5556 5552 5550 5548 5547 5547 5546 5546 5546 5547 5549 5554 5560 5568
5866 5863 5860 5859 5855 5850 5846 5843 5838 5831 5824 5816 5807 5797 5787 5776 5763 5750 5736 5722 5707 5691 5675 5659 5644 5629 5615 5603 5592 5581 5572 5563 5556 5549 5543 5538 5534 5531 5530 5529 5529 5529 5529 5530 5530 5532 5534 5538 5544
5863 5860 5856 5853 5850 5847 5842 5838 5833 5824 5816 5808 5798 5788 5778 5765 5751 5737 5723 5708 5692 5676 5660 5644 5628 5613 5599 5587 5576 5565 5556 5547 5539 5533 5526 5520 5515 5512 5510 5509 5509 5510 5511 5512 5514 5515 5517 5521 5525
5860 5857 5853 5849 5845 5841 5838 5830 5826 5816 5807 5799 5789 5779 5767 5753 5739 5725 5710 5695 5678 5661 5644 5628 5613 5599 5585 5572 5561 5550 5541 5532 5524 5517 5510 5504 5498 5493 5490 5489 5489 5490 5491 5493 5496 5498 5500 5504 5508
5856 5853 5849 5845 5841 5837 5831 5824 5818 5808 5799 5791 5781 5769 5756 5742 5728 5713 5697 5680 5663 5647 5631 5615 5600 5586 5572 5560 5548 5538 5528 5519 5511 5503 5496 5489 5483 5477 5473 5470 5469 5469 5471 5473 5476 5480 5483 5486 5490
5853 5850 5847 5842 5835 5829 5822 5816 5811 5803 5794 5782 5770 5758 5746 5732 5717 5701 5684 5667 5651 5634 5618 5603 5589 5575 5562 5549 5538 5527 5516 5507 5498 5490 5482 5475 5469 5463 5458 5454 5452 5451 5451 5453 5456 5460 5465 5469 5473
5851 5846 5840 5834 5828 5824 5820 5814 5808 5796 5785 5774 5763 5751 5737 5722 5706 5689 5673 5657 5640 5623 5608 5593 5578 5565 5552 5540 5528 5516 5505 5495 5485 5477 5469 5462 5456 5449 5444 5439 5436 5434 5433 5434 5437 5441 5446 5451 5455
5847 5843 5838 5832 5827 5823 5816 5806 5801 5790 5780 5769 5757 5744 5728 5711 5695 5679 5662 5645 5629 5613 5597 5583 5569 5556 5543 5531 5518 5506 5494 5484 5474 5465 5457 5449 5442 5435 5429 5424 5420 5418 5416 5417 5418 5422 5427 5432 5438
5844 5840 5836 5830 5823 5816 5810 5802 5795 5785 5775 5764 5750 5734 5718 5703 5686 5669 5652 5635 5619 5603 5588 5574 5561 5547 5534 5521 5509 5496 5485 5474 5464 5455 5447 5439 5431 5424 5416 5410 5405 5402 5400 5400 5401 5404 5409 5414 5420
5842 5837 5832 5826 5818 5810 5804 5797 5789 5779 5768 5755 5741 5726 5710 5694 5677 5660 5643 5626 5610 5595 5580 5566 5553 5539 5526 5512 5499 5487 5476 5465 5455 5446 5438 5429 5421 5413 5405 5398 5392 5387 5385 5384 5386 5388 5392 5398 5404
5839 5834 5828 5822 5815 5806 5796 5793 5785 5773 5760 5747 5733 5717 5701 5685 5669 5652 5635 5618 5603 5588 5574 5560 5546 5532 5519 5505 5492 5479 5468 5457 5447 5438 5428 5419 5410 5402 5394 5386 5380 5375 5372 5370 5371 5374 5378 5382 5389
5836 5830 5824 5819 5812 5804 5795 5789 5777 5765 5753 5739 5725 5709 5693 5677 5661 5644 5627 5612 5597 5582 5568 5554 5540 5526 5511 5498 5485 5472 5461 5450 5440 5429 5419 5409 5399 5390 5382 5374 5368 5363 5359 5357 5358 5360 5364 5369 5375